[[{"header":{"parameterUnit":"m.s-1","parameterCategory":1,"la1":30.2991,"la2":30.254,"lo1":-89.0895,"lo2":-89.0444,"dy":0.0017,"dx":0.0017,"nx":28,"ny":28,"refTime":"2024-06-21T21:00:00:Z","depth":0,"parameterNumber":2,"parameterNumberName":"U-component_of_WINDS"},"data":[0,0,0,0,0,0,0,0,0,0,0,0,0,0,0,0,0,0,0,0,0,0,0,0,0,0,0,0,0,0,0,0,0,0,0,0,0,0,0,0,0,0,0,0,0,0,0,0,0,0,0,0,0,0,0,0,0,0,1.1787,1.1788,0,1.1878,1.1879,1.188,1.1911,1.1911,1.191,1.191,1.2002,1.2005,1.2007,0,0,0,0,0,0,0,0,0,0,0,0,0,1.1636,1.1639,1.1786,1.1788,1.1789,1.1878,1.1879,1.188,1.1911,1.1911,1.191,1.191,1.2001,1.2004,1.2008,0,0,0,0,0,0,0,0,0,0,0,0,0,1.1712,1.164,1.1786,1.1815,1.1818,1.1877,1.1879,1.188,1.1911,1.1911,1.191,1.1909,1.2,1.2004,1.2008,1.2045,0,0,1.2021,1.2023,0,0,0,0,0,0,0,0,1.1708,1.1717,1.181,1.1813,1.1817,1.1882,1.186,1.1936,1.1911,1.1876,1.191,1.1909,1.1963,1.197,1.1988,1.2049,1.2053,1.2021,1.2024,1.2026,1.2027,0,0,0,0,0,0,0,1.1702,1.1714,1.1823,1.1811,1.1815,1.1822,1.1833,1.1874,1.1921,1.1879,1.1881,1.1892,1.1965,1.1984,1.199,1.2055,1.2021,1.2025,1.2028,1.2029,1.2149,1.215,0,0,0,0,0,0,1.1693,1.1709,1.182,1.1825,1.176,1.1826,1.1837,1.1862,1.1921,1.1929,1.1892,1.1893,1.1977,1.1986,1.1994,1.204,1.2026,1.203,1.2032,1.2148,1.2149,1.215,0,0,0,0,0,0,1.1689,1.1702,1.1816,1.1768,1.1783,1.1829,1.1857,1.1864,1.1884,1.1931,1.1939,1.1904,1.1977,1.1988,1.2032,1.2044,1.2031,1.2035,1.2148,1.2149,1.215,1.2133,0,0,0,0,0,0,1.1685,1.1701,1.1716,1.1768,1.1785,1.1853,1.1857,1.1866,1.1891,1.1893,1.1944,1.1952,1.1977,1.2025,1.2036,1.2049,1.2039,1.2147,1.2148,1.2149,1.2132,1.2133,1.2133,0,0,0,0,0,1.1679,1.1707,1.1717,1.173,1.1805,1.1854,1.1864,1.1893,1.1892,1.1907,1.1937,1.195,1.2041,1.203,1.2042,1.2056,1.2146,1.2148,1.2149,1.2132,1.2133,1.2133,0,0,0,0,0,0,1.1655,1.1715,1.1726,1.1772,1.1807,1.1859,1.1879,1.1893,1.193,1.193,1.1964,1.1975,1.2016,1.2041,1.2028,1.2094,1.2094,1.2098,1.2077,1.2078,1.2078,1.2071,1.2042,0,0,0,0,0,1.1655,1.169,1.174,1.1776,1.1793,1.1833,1.1855,1.1874,1.1913,1.1928,1.1961,1.1998,1.2034,1.2057,1.2094,1.2136,1.2147,1.2152,1.2152,1.2153,1.2156,1.2179,1.2181,1.2155,1.2155,1.2155,0,0,1.1656,1.1692,1.1712,1.1772,1.1802,1.1836,1.1845,1.1882,1.1907,1.1933,1.1977,1.2002,1.2045,1.2088,1.2108,1.2109,1.2165,1.2155,1.2154,1.2157,1.218,1.2183,1.2185,1.2156,1.2156,1.2156,0,0,1.1674,1.1706,1.1738,1.1768,1.1814,1.184,1.1847,1.1897,1.1915,1.1959,1.1978,1.2009,1.2072,1.2101,1.2124,1.2152,1.2165,1.2163,1.2165,1.2187,1.2189,1.2191,1.22,1.2203,1.2165,1.2165,1.2165,0,1.1668,1.1722,1.1753,1.1788,1.1813,1.1839,1.1871,1.1898,1.1953,1.1969,1.197,1.2048,1.2079,1.2128,1.2135,1.2153,1.2162,1.2157,1.2187,1.2189,1.2191,1.22,1.2204,1.2165,1.2165,1.2165,1.2165,0,1.1712,1.1749,1.177,1.1822,1.1849,1.1883,1.1919,1.1942,1.1959,1.1985,1.2028,1.2066,1.211,1.2123,1.214,1.2175,1.2174,1.218,1.218,1.2193,1.2202,1.2205,1.2164,1.2164,1.2164,1.2164,0,0,1.1718,1.1787,1.1794,1.1817,1.1869,1.1897,1.1931,1.1975,1.1994,1.203,1.2059,1.2111,1.2117,1.2143,1.2163,1.2183,1.2201,1.2187,1.2188,1.2187,1.224,1.2235,1.2238,1.221,1.2211,1.2212,1.2237,0,1.1742,1.1805,1.1834,1.1884,1.1917,1.1941,1.1971,1.2005,1.203,1.2061,1.2088,1.2124,1.2129,1.2145,1.2165,1.2194,1.2212,1.2193,1.2237,1.2238,1.2225,1.2243,1.2238,1.226,1.224,1.2241,1.2241,0,1.1779,1.1816,1.1869,1.1915,1.193,1.1957,1.1998,1.2028,1.2067,1.2083,1.2112,1.2131,1.2167,1.2165,1.2214,1.2201,1.222,1.2237,1.2238,1.2243,1.224,1.2248,1.2268,1.2271,1.2247,1.2247,1.2247,0,1.1777,1.1839,1.1879,1.1898,1.1954,1.1972,1.1995,1.2034,1.2057,1.2093,1.2109,1.2148,1.2169,1.2199,1.2228,1.2224,1.2274,1.2275,1.2288,1.2287,1.2297,1.2296,1.232,1.2311,1.2311,1.2311,1.2311,0,1.18,1.1832,1.1878,1.1903,1.1938,1.197,1.2004,1.203,1.2063,1.2092,1.2115,1.2142,1.2179,1.221,1.2233,1.227,1.2279,1.2293,1.2299,1.2291,1.2289,1.2304,1.2303,1.2312,1.2311,1.2311,1.2311,0,1.1804,1.1836,1.1881,1.193,1.1943,1.1966,1.2008,1.2032,1.2057,1.2093,1.2104,1.2143,1.2181,1.2213,1.2262,1.2278,1.2316,1.2323,1.2302,1.2305,1.2317,1.2315,1.235,1.2356,1.2343,1.2343,1.2343,0,1.1816,1.1841,1.1892,1.1913,1.1937,1.1971,1.1995,1.2027,1.2051,1.2097,1.2115,1.2154,1.2187,1.2246,1.2279,1.2317,1.2324,1.2334,1.233,1.2321,1.2324,1.2322,1.2324,1.2334,1.2334,1.2334,1.2334,0,1.1835,1.185,1.1884,1.1924,1.1952,1.1985,1.2018,1.2034,1.2072,1.2098,1.2137,1.2162,1.2212,1.2251,1.2292,1.2316,1.2331,1.2335,1.234,1.2332,1.2319,1.2325,1.2302,1.2334,1.2334,1.2334,1.2334,1.2334,1.1843,1.1865,1.1905,1.1942,1.197,1.2001,1.2025,1.2054,1.2087,1.213,1.2147,1.2186,1.2224,1.2281,1.2304,1.2335,1.2337,1.2345,1.2346,1.2348,1.2346,1.2314,1.2343,1.2343,1.2343,1.2343,1.2343,0,1.1862,1.1888,1.1922,1.1968,1.1997,1.2009,1.2046,1.2069,1.2104,1.2137,1.2169,1.2213,1.225,1.2286,1.2325,1.2342,1.235,1.2351,1.235,1.2355,1.2342,1.2334,1.2344,1.2344,1.2344,1.2344,1.2344,1.2344,1.1875,1.1914,1.1933,1.1985,1.2012,1.2051,1.2071,1.2098,1.2125,1.2173,1.2204,1.2227,1.2262,1.2303,1.2337,1.2347,1.2359,1.2359,1.237,1.2357,1.2356,1.2356,1.2348,1.2361,1.2361,1.238,1.238,1.2381]},{"header":{"parameterUnit":"m.s-1","parameterCategory":1,"la1":30.2991,"la2":30.254,"lo1":-89.0895,"lo2":-89.0444,"dy":0.0017,"dx":0.0017,"nx":28,"ny":28,"refTime":"2024-06-21T21:00:00:Z","depth":0,"parameterNumber":3,"parameterNumberName":"V-component_of_WINDS"},"data":[0,0,0,0,0,0,0,0,0,0,0,0,0,0,0,0,0,0,0,0,0,0,0,0,0,0,0,0,0,0,0,0,0,0,0,0,0,0,0,0,0,0,0,0,0,0,0,0,0,0,0,0,0,0,0,0,0,0,3.6813,3.6813,0,3.6808,3.6808,3.6808,3.6751,3.675,3.6748,3.6747,3.6743,3.6744,3.6745,0,0,0,0,0,0,0,0,0,0,0,0,0,3.6771,3.6772,3.6813,3.6813,3.6813,3.6808,3.6808,3.6808,3.6751,3.675,3.6748,3.6746,3.6742,3.6744,3.6745,0,0,0,0,0,0,0,0,0,0,0,0,0,3.678,3.6773,3.6813,3.6784,3.6781,3.6808,3.6808,3.6808,3.6752,3.675,3.6747,3.6745,3.6742,3.6744,3.6745,3.68,0,0,3.6751,3.6752,0,0,0,0,0,0,0,0,3.678,3.6782,3.6788,3.6786,3.6783,3.6778,3.6792,3.6806,3.6752,3.6763,3.6747,3.6744,3.6756,3.6757,3.6761,3.68,3.68,3.6751,3.6752,3.6753,3.6754,0,0,0,0,0,0,0,3.6779,3.6782,3.6811,3.6788,3.6785,3.6771,3.677,3.6794,3.6772,3.6762,3.6758,3.6758,3.6754,3.6759,3.676,3.68,3.6751,3.6753,3.6754,3.6755,3.6883,3.6885,0,0,0,0,0,0,3.6783,3.6782,3.6811,3.6811,3.6776,3.6773,3.6772,3.6782,3.6771,3.6768,3.676,3.6755,3.6757,3.6758,3.676,3.6822,3.6753,3.6755,3.6756,3.688,3.6883,3.6886,0,0,0,0,0,0,3.6782,3.6786,3.6811,3.6795,3.6797,3.6776,3.6788,3.6783,3.6787,3.677,3.6765,3.6769,3.6755,3.6757,3.679,3.6821,3.6756,3.6757,3.6878,3.6881,3.6884,3.6948,0,0,0,0,0,0,3.6781,3.6786,3.6807,3.6796,3.6798,3.6842,3.679,3.6784,3.6791,3.6785,3.6777,3.6774,3.6754,3.6788,3.6792,3.6822,3.6759,3.6875,3.6879,3.6883,3.6943,3.6953,3.6962,0,0,0,0,0,3.678,3.6825,3.6808,3.6812,3.6824,3.6844,3.6845,3.6821,3.6793,3.6814,3.6802,3.6774,3.6817,3.6792,3.6796,3.6827,3.6873,3.6878,3.6883,3.6939,3.6951,3.6961,0,0,0,0,0,0,3.684,3.6823,3.6804,3.6847,3.6848,3.6834,3.6859,3.6835,3.6844,3.6838,3.6808,3.6807,3.6844,3.6839,3.6811,3.6879,3.684,3.6846,3.6881,3.6892,3.6902,3.6901,3.676,0,0,0,0,0,3.6859,3.6877,3.6861,3.69,3.6901,3.6881,3.6888,3.687,3.6869,3.6869,3.686,3.686,3.6873,3.6883,3.6895,3.6942,3.6939,3.6966,3.6976,3.6983,3.6989,3.7012,3.7024,3.6902,3.6902,3.6902,0,0,3.6897,3.689,3.6903,3.6912,3.691,3.6929,3.6881,3.6903,3.6916,3.6872,3.6902,3.6896,3.6894,3.6935,3.6952,3.6932,3.7022,3.699,3.6996,3.6997,3.7019,3.703,3.7041,3.6906,3.6905,3.6905,0,0,3.6975,3.6972,3.7004,3.7003,3.7,3.6986,3.6994,3.6984,3.6978,3.7008,3.6975,3.6991,3.7015,3.7014,3.7018,3.7096,3.7069,3.7101,3.7149,3.7173,3.7182,3.719,3.7217,3.7227,3.7106,3.7106,3.7107,0,3.7023,3.705,3.7024,3.7048,3.7052,3.7013,3.7045,3.7045,3.7047,3.7051,3.7028,3.7057,3.7053,3.7092,3.7111,3.7116,3.7123,3.7101,3.7183,3.7191,3.7198,3.7223,3.7234,3.711,3.711,3.7109,3.7109,0,3.7107,3.7127,3.7153,3.7154,3.7162,3.719,3.7168,3.7179,3.716,3.7149,3.7179,3.7173,3.7182,3.7191,3.7173,3.7227,3.7214,3.7188,3.7148,3.7214,3.7237,3.7246,3.7115,3.7114,3.7113,3.7112,0,0,3.7223,3.721,3.722,3.7219,3.7214,3.7228,3.7254,3.7263,3.7272,3.7275,3.7295,3.7317,3.7292,3.7295,3.7277,3.7298,3.7359,3.7269,3.7268,3.7284,3.7417,3.7436,3.7447,3.7342,3.7344,3.7345,3.7416,0,3.7297,3.734,3.7318,3.7363,3.738,3.7343,3.7366,3.7364,3.7354,3.7367,3.7356,3.7371,3.7338,3.7339,3.7359,3.7347,3.7385,3.7342,3.736,3.736,3.7359,3.7459,3.7479,3.7547,3.7425,3.7427,3.7428,0,3.739,3.7395,3.7443,3.7433,3.7439,3.746,3.7465,3.7478,3.7476,3.7467,3.7471,3.7447,3.7472,3.7433,3.7466,3.7437,3.7443,3.7439,3.7441,3.744,3.7397,3.746,3.7568,3.7578,3.7442,3.7441,3.744,0,3.7467,3.7487,3.7517,3.7519,3.7508,3.7523,3.752,3.7515,3.7522,3.7527,3.7531,3.7539,3.7544,3.7551,3.753,3.7504,3.7565,3.7525,3.7558,3.7558,3.7571,3.757,3.768,3.7578,3.7578,3.7577,3.7577,0,3.7552,3.7582,3.7552,3.7571,3.7603,3.7577,3.761,3.7602,3.7599,3.7615,3.7584,3.76,3.7573,3.7586,3.757,3.7599,3.7602,3.7595,3.759,3.7597,3.7597,3.7599,3.7593,3.758,3.7579,3.7579,3.7578,0,3.7643,3.7625,3.7655,3.7643,3.764,3.7665,3.7654,3.767,3.7658,3.7679,3.7683,3.7664,3.7678,3.7658,3.767,3.766,3.7699,3.7688,3.7699,3.7695,3.7729,3.7725,3.7842,3.7856,3.7747,3.7748,3.7749,0,3.7697,3.7719,3.7709,3.7718,3.7716,3.773,3.7736,3.7712,3.7719,3.7718,3.7735,3.7746,3.7754,3.7778,3.7765,3.7774,3.7762,3.7802,3.7763,3.7769,3.7761,3.7759,3.776,3.781,3.7811,3.7812,3.7813,0,3.7795,3.7785,3.7794,3.7801,3.7809,3.7814,3.7815,3.7824,3.7798,3.7809,3.7822,3.7828,3.784,3.7851,3.7857,3.7853,3.7829,3.7826,3.7834,3.784,3.7845,3.7841,3.772,3.7823,3.7822,3.7821,3.7821,3.782,3.7868,3.7886,3.7881,3.7893,3.7892,3.7894,3.7909,3.7898,3.7909,3.7916,3.7901,3.7919,3.7915,3.792,3.7919,3.7932,3.7915,3.7926,3.7929,3.7932,3.7936,3.7844,3.7934,3.7933,3.7933,3.7933,3.7933,0,3.7963,3.7958,3.7969,3.7973,3.7982,3.7958,3.7959,3.7968,3.7984,3.7983,3.799,3.8006,3.8017,3.8005,3.8013,3.8026,3.8015,3.8029,3.8027,3.8026,3.7952,3.7944,3.8038,3.8038,3.8038,3.8038,3.8038,3.8038,3.8013,3.8041,3.803,3.8057,3.8052,3.8068,3.807,3.8072,3.8071,3.8089,3.8098,3.809,3.8085,3.8092,3.8101,3.8097,3.8101,3.8119,3.8111,3.8042,3.8032,3.8022,3.8014,3.8121,3.8121,3.8184,3.8185,3.8185]}]]